CZ-3B DEB, 42458

Orbit data source: Space-Track

CZ-3B DEB, 42458 is space debris in HEO originally from a launch on Sat, 04 Sep 2010 UTC launched from the Xichang Space Center, China (XSC). Debris objects in space refer to the collection of defunct objects orbiting the Earth. Examples of debris include non-operational satellites, rocket bodies, and fragments generated from explosions, collisions, or faulty payload assembly.

Loading next visibility...
Identifier
42458, 2010-042Z
Orbit
HEO
Country
Flag of CNCN / PRC
Related business
Manufacturer
CALT
Mission
Spacecraft
Bus & Motor
Unknown
Mass
Unknown
Launch date (UTC)
2010-09-04 (15 years ago)
Launch vehicle
Unknown
Launch site
Xichang Space Center, China (XSC)
Object type
Payload
Rocket body
Debris
Shape & HBR
Unknown shape, 0.1 m
Radar Cross Section
Medium (>0.1 m² and <1 m²)

Expand to show TLE details & history
Last TLE update: 3 days ago

TLE from 3 days ago
0 CZ-3B DEB
1 42458U 10042Z   25316.17383728 -.00000124  00000-0  11657-2 0  9996
2 42458  31.0007 306.2376 7481623 146.2500 299.0561  1.81281865 72531
Epoch: 2025-11-12T04:10Z
TLE epoch observation values (Epoch: 2025-11-12T04:10:19.540Z)
Latitude
-0.00007°
Longitude
-167.91142°
Altitude
26,661.02 km
Speed
3.178 km/s
True Right ascension
20h 24m 52s
True Declination
0° 00' 00"
Sunlit
Object was in daylight at epoch
Visualization orbit readout
Latitude
Unknown
Longitude
Unknown
Altitude
Unknown
Speed
Unknown
Apparent Right ascension
Unknown
Apparent Declination
Unknown
Sunlit
N/A
Visualization observer readout
Local Sidereal Time
21:30:06
Azimuth
Unknown
Elevation
Unknown
Doppler factor
Unknown
Orbital elements
Apogee altitude
43,295.938 km
Perigee altitude
777.837 km
Semi-major axis
28,415.025 km
Eccentricity
0.74816
Inclination
31.0007°
RAAN
306.2376°
Arg. of periapsis
146.25°
True anomaly
213.73947°
Mean anomaly
299.0561°
Eccentric anomaly
257.24704°
Mean motion
0.45313 °/min
Orbital period
794.48 mins
BSTAR
0.0011657
Loading maneuver chart data...
Computing Atmospheric mass density...
Loading historical data...
Loading historical data...
Loading historical data...
Loading historical data...
Loading historical data...
Loading historical data...
Loading historical data...

Documentation

Showing up to 5 results
|